Location: Garrison
(47.6536°N, 101.4238°W)
Time: 19:57:10
(UTC+00:00)

X-37B - Visible Passes

Search period start: 25 November 2020 00:00
Search period end: 05 December 2020 00:00
Orbit: 384 x 389 km, 45.0° (Epoch: 12 November)

Date Brightness Start Highest point End Pass type
(mag) Time Alt. Az. Time Alt. Az. Time Alt. Az.
27 Nov 3.3 01:12:47 10° SSW 01:13:19 12° S 01:13:19 12° S visible
28 Nov 3.1 00:15:51 10° SSE 00:16:34 11° SSE 00:17:17 10° SE visible
28 Nov 3.9 01:49:40 10° SW 01:49:47 11° SW 01:49:47 11° SW visible
29 Nov 2.2 00:51:29 10° SW 00:53:55 24° SSE 00:53:55 24° SSE visible
29 Nov 2.8 23:53:38 10° SSW 23:55:46 17° SSE 23:57:53 10° ESE visible
30 Nov 2.9 01:28:53 10° WSW 01:30:16 22° SW 01:30:16 22° SW visible
01 Dec 1.7 00:30:32 10° SW 00:33:26 33° SSE 00:34:20 28° SE visible
01 Dec 2.3 23:32:22 10° SW 23:35:01 24° SSE 23:37:39 10° E visible
02 Dec 1.7 01:08:11 10° WSW 01:10:39 42° SW 01:10:39 42° SW visible
03 Dec 1.4 00:09:45 10° WSW 00:12:47 43° SSE 00:14:41 19° ESE visible
03 Dec 3.6 01:46:07 10° W 01:46:57 17° WSW 01:46:57 17° WSW visible
04 Dec 1.0 00:47:34 10° WSW 00:50:41 53° S 00:51:00 50° SSE visible
04 Dec 1.2 23:49:04 10° WSW 23:52:10 51° S 23:55:05 11° E visible
